Вернуться в каталог

ARIANE 3 DEB

АктивенGTO
NORAD 20674·DEBRIS·🇫🇷 France

Запущен Aug 4, 1984 с Guiana Space Centre

Loading…

TLE

УстаревающийSource: Space-Track

Эпоха: Sep 14, 2026, 11:58 UTC

1 20674U 84081E   26257.49886593  .00000141  00000-0  75634-2 0  9997
2 20674   7.4788 352.0082 6972367 310.4807  25.3484  2.40806252299665

Отслеживайте ARIANE 3 DEB в реальном времени с AllMySat

Download on the App Store